Location: Montreal
(45.5000°N, 73.5833°W)
Time: 04:20:54
(UTC-05:00)

Vanguard 1 Rocket - All Passes

Search period start: 11 December 2017 00:00
Search period end: 21 December 2017 00:00
Orbit: 656 x 4222 km, 34.3° (Epoch: 09 December)

Date Brightness Start Highest point End Pass type
(mag) Time Alt. Az. Time Alt. Az. Time Alt. Az.
11 Dec - 02:04:32 10° W 02:15:29 15° SW 02:26:12 10° SSW visible
11 Dec - 15:05:36 10° SSE 15:11:11 16° SE 15:18:45 10° E daylight
11 Dec - 17:24:53 10° SW 17:35:24 46° SSE 17:54:23 10° E visible
11 Dec - 19:48:47 10° WSW 20:03:29 59° S 20:27:44 10° ESE visible
11 Dec - 22:15:13 10° W 22:33:43 48° SSW 22:57:35 10° SE visible
12 Dec - 00:46:12 10° W 01:02:53 24° SW 01:20:11 10° S visible
12 Dec - 16:15:30 10° SSW 16:24:01 33° SE 16:38:34 10° E visible
12 Dec - 18:38:00 10° WSW 18:50:21 56° S 19:12:28 10° E visible
12 Dec - 21:03:14 10° W 21:19:46 54° SSW 21:44:18 10° SE visible
12 Dec - 23:31:30 10° W 23:49:39 34° SW 00:10:34 10° SSE visible
13 Dec - 15:07:15 10° S 15:13:24 20° SE 15:22:26 10° E daylight
13 Dec - 17:27:47 10° SW 17:38:00 49° SSE 17:56:52 10° E visible
13 Dec - 19:51:54 10° WSW 20:06:07 57° S 20:29:55 10° ESE visible
13 Dec - 22:18:28 10° W 22:36:01 42° SSW 22:59:02 10° SSE visible
14 Dec - 00:50:56 10° W 01:04:46 19° SW 01:19:22 10° SSW visible
14 Dec - 16:18:10 10° SSW 16:26:30 37° SSE 16:41:17 10° E visible
14 Dec - 18:41:06 10° WSW 18:53:03 56° S 19:14:46 10° ESE visible
14 Dec - 21:06:25 10° W 21:22:17 49° SSW 21:46:04 10° SE visible
14 Dec - 23:35:16 10° W 23:51:44 28° SW 00:11:00 10° S visible
15 Dec - 15:09:24 10° S 15:15:46 24° SE 15:25:42 10° E daylight
15 Dec - 17:30:48 10° WSW 17:40:42 51° SSE 17:59:18 10° E visible
15 Dec - 19:55:04 10° W 20:08:48 54° S 20:31:55 10° ESE visible
15 Dec - 22:21:52 10° W 22:38:20 36° SSW 23:00:06 10° SSE visible
16 Dec - 00:57:25 10° WSW 01:06:44 14° SW 01:16:34 10° SSW visible
16 Dec - 14:02:56 10° SSE 14:05:37 12° SE 14:08:47 10° ESE daylight
16 Dec - 16:21:01 10° SW 16:29:07 41° SSE 16:43:55 10° E visible
16 Dec - 18:44:15 10° WSW 18:55:49 55° S 19:16:59 10° ESE visible
16 Dec - 21:09:41 10° W 21:24:49 44° SSW 21:47:33 10° SE visible
16 Dec - 23:39:32 10° W 23:53:53 22° SW 00:10:39 10° S visible
17 Dec - 15:11:53 10° SSW 15:18:17 28° SE 15:28:43 10° E daylight
17 Dec - 17:33:54 10° WSW 17:43:30 52° S 18:01:42 10° ESE visible
17 Dec - 19:58:18 10° W 20:11:30 49° SSW 20:33:45 10° SE visible
17 Dec - 22:25:32 10° W 22:40:41 31° SW 23:00:41 10° SSE visible
18 Dec - 14:04:05 10° SSE 14:08:01 15° SE 14:13:12 10° ESE daylight
18 Dec - 16:23:59 10° SW 16:31:52 43° SSE 16:46:30 10° E visible
18 Dec - 18:47:28 10° WSW 18:58:38 52° S 19:19:05 10° ESE visible
18 Dec - 21:13:07 10° W 21:27:22 38° SSW 21:48:42 10° SSE visible
18 Dec - 23:44:50 10° WSW 23:56:06 17° SW 00:09:01 10° SSW visible
19 Dec - 15:14:36 10° SSW 15:20:56 31° SSE 15:31:37 10° E daylight
19 Dec - 17:37:05 10° WSW 17:46:22 51° S 18:04:01 10° ESE visible
19 Dec - 20:01:38 10° W 20:14:14 44° SSW 20:35:20 10° SE visible
19 Dec - 22:29:35 10° W 22:43:04 25° SW 23:00:37 10° S visible
20 Dec - 14:06:07 10° S 14:10:34 19° SE 14:16:50 10° E daylight
20 Dec - 16:27:04 10° SW 16:34:44 45° SSE 16:49:02 10° E visible
20 Dec - 18:50:45 10° W 19:01:29 48° S 19:21:01 10° SE visible
20 Dec - 21:16:44 10° W 21:29:58 32° SSW 21:49:26 10° SSE visible
